This is the latest recevied weather packets stored in our database for station/object KE7PGE-13. If no packets are shown the sender has not sent any weather packets the latest 10 day(s).
| Time | Temp. | Humidity | Pressure | Rain* | Wind** | Luminosity | Snow |
|---|---|---|---|---|---|---|---|
| 1788432003 | 10° C | 98% | 1009.3 hPa | 0 mm | - | - | - |
| 1788430204 | 10° C | 97% | 1009 hPa | 0 mm | - | - | - |
| 1788421204 | 10.56° C | 97% | 1008.9 hPa | 0 mm | - | - | - |
| 1788417604 | 10.56° C | 97% | 1008.8 hPa | 0 mm | - | - | - |
| 1788414005 | 11.11° C | 96% | 1008.6 hPa | 0 mm | - | - | - |
| 1788410405 | 11.67° C | 97% | 1008.4 hPa | 0 mm | - | - | - |
| 1788408604 | 12.22° C | 96% | 1008 hPa | 0 mm | - | - | - |
| 1788405005 | 13.33° C | 97% | 1007.5 hPa | 0 mm | - | - | - |
| 1788401405 | 13.33° C | 96% | 1006.7 hPa | 21.59 mm | - | - | - |
| 1788396005 | 14.44° C | 96% | 1005.7 hPa | 0 mm | - | - | - |
| 1788394204 | 14.44° C | 95% | 1006.1 hPa | 2.54 mm | - | - | - |
| 1788390604 | 15° C | 93% | 1005.8 hPa | 1.52 mm | - | - | - |
| 1788388804 | 15° C | 91% | 1005.7 hPa | 0 mm | - | - | - |
| 1788379805 | 20° C | 69% | 1006.2 hPa | 0 mm | - | - | - |
| 1788360004 | 12.78° C | 95% | 1009 hPa | 0 mm | - | - | - |
| 1788356404 | 12.78° C | 95% | 1009.1 hPa | 0 mm | - | - | - |
| 1788354604 | 12.78° C | 96% | 1009.3 hPa | 0 mm | - | - | - |
| 1788351004 | 12.78° C | 96% | 1009.4 hPa | 0 mm | - | - | - |
| 1788345604 | 13.89° C | 96% | 1010.2 hPa | 0 mm | - | - | - |
| 1788343804 | 13.89° C | 95% | 1010.6 hPa | 0 mm | - | - | - |
| 1788338404 | 14.44° C | 95% | 1011.1 hPa | 0 mm | - | - | - |
| 1788329405 | 14.44° C | 94% | 1011.5 hPa | 0 mm | - | - | - |
| 1788327603 | 14.44° C | 93% | 1011.5 hPa | 0 mm | - | - | - |
| 1788320404 | 16.11° C | 88% | 1011.2 hPa | 0 mm | - | - | - |
| 1788316804 | 16.67° C | 85% | 1011 hPa | 0 mm | - | - | - |
* Rain latest hour (hover to see other rain measurements)
** Current wind speed in m/s (hover to see current wind gust speed)